sat.trackr.live / text

‹ back to catalog

REAL

NORAD 64875 · 2025-154G

PAYLOAD ACTIVE UNKNOWN

§ Identity

Operator
Country
US
Launch date
2025-07-23
Launch site
AFWTR
Launch vehicle
Mass (kg)
RCS (m²)

External: N2YO · Heavens-Above · Gunter

§ Orbital elements

Epoch: 2026-05-25T02:31:07.876992Z

Period
94.02 min
Inclination
97.4046°
Eccentricity
0.0001916
Mean motion
15.31602702 rev/d
Perigee alt
469.7 km
Apogee alt
472.3 km
Semi-major
6,849.2 km
B*
6.6367e-4
RAAN
213.4395°
Arg perigee
125.4782°
Mean anomaly
234.6639°
Rev number
4,651

§ Raw data

REAL1 64875U 25154G   26145.10495228  .00020207  00000+0  66367-3 0  99972 64875  97.4046 213.4395 0001916 125.4782 234.6639 15.31602702 46511

JSON: /api/v1/satellites/64875 · /tle

For live sub-satellite position, see the globe view (requires WebGL).

§ Visibility from observer

Set your observer location to see the next 7 days of passes ≥ 10°. The values pass through the URL so the page stays shareable.

No JS? Fill the form by hand. The geolocation button needs JavaScript.

§ Radio — SatNOGS DB

ModeDescriptionDownlinkUplink
FM Mode S - Transmitter 2.202 GHz
GFSK Mode U - GFSK9k6 - Beacon 450.060 MHz

2 transmitters · refreshed weekly from db.satnogs.org